Weather Service Report


595 
ASUS44 KEWX 230610
RWRTX 
SOUTH TEXAS REGIONAL WEATHER ROUNDUP
NATIONAL WEATHER SERVICE AUSTIN/SAN ANTONIO TX
100 AM CDT THU OCT 23 2014

NOTE: "FAIR" INDICATED FEW OR NO CLOUDS BELOW 12,000 FEET WITH NO
SIGNIFICANT WEATHER AND/OR OBSTRUCTIONS TO VISIBILITY.

* - THESE STATIONS ARE NOT NWS OR FAA STATIONS...AND ARE NOT SUBJECT
    TO NWS AND FAA QUALITY CONTROL.
 
TXZ171-172-183>190-230700-
TEXAS HILL COUNTRY AND EDWARDS PLATEAU
  
CITY           SKY/WX    TMP DP  RH WIND       PRES   REMARKS
JUNCTION       CLOUDY    62  61  96 W3        30.13S FOG              
6HR MIN TEMP:  62; 6HR MAX TEMP:  72; 6HR PCP:  0.03;                

*LLANO         NOT AVBL                                               
BURNET         CLOUDY    69  57  65 SE5       30.13S                  
6HR MIN TEMP:  69; 6HR MAX TEMP:  75;                                

*HORSESHOE BAY CLOUDY    70  58  66 S5        30.10F                  
6HR MIN TEMP:  69; 6HR MAX TEMP:  75;                                

*KERRVILLE     DRIZZLE   63  61  93 CALM      30.13S                  
6HR MIN TEMP:  63; 6HR MAX TEMP:  73; 6HR PCP:  0.02;                

*FREDERICKSBRG CLOUDY    65  60  85 CALM      30.12S                  
6HR MIN TEMP:  64; 6HR MAX TEMP:  68; 6HR PCP:  0.01;                

*ROCKSPRINGS   CLOUDY    61  59  94 N3        30.16S                  
*BOERNE STAGE  CLOUDY    63  59  88 CALM      30.13S                  
*CASTROVILLE   DRIZZLE   73  56  56 SE8       30.10S                  
HONDO          LGT RAIN  68  60  75 SE5       30.11S                  
6HR MIN TEMP:  67; 6HR MAX TEMP:  75; 6HR PCP:  0.01;                

*UVALDE        LGT RAIN  68  66  94 E5        30.09F                  
6HR MIN TEMP:  68; 6HR MAX TEMP:  79; 6HR PCP:  0.02;                

DEL RIO        PTCLDY    65  64  97 CALM      30.09F FOG              
6HR MIN TEMP:  64; 6HR MAX TEMP:  66; 6HR PCP:  0.12;                

LAUGHLIN AFB   CLEAR     64  63  94 SW1       30.09F FOG              
6HR MIN TEMP:  64; 6HR MAX TEMP:  67; 6HR PCP:  0.10;                

CARRIZO SPRGS  CLOUDY    73  61  64 S5        30.07S                  
$$

TXZ173-191>194-202-209-217>225-228-230700-
CENTRAL AND SOUTH CENTRAL TEXAS
  
CITY           SKY/WX    TMP DP  RH WIND       PRES   REMARKS
GEORGETOWN     CLOUDY    70  57  64 CALM      30.11R                  
6HR MIN TEMP:  70; 6HR MAX TEMP:  75;                                

AUSTIN/BERGSTM LGT RAIN  68  61  78 CALM      30.09S                  
6HR MIN TEMP:  68; 6HR MAX TEMP:  76; 6HR PCP: TRACE;                

AUSTIN/MABRY   CLOUDY    71  59  65 SE3       30.11R                  
6HR MIN TEMP:  70; 6HR MAX TEMP:  77; 6HR PCP: TRACE;                

*AUSTIN/EXEC   CLOUDY    68  59  73 CALM      30.12R                  
*LAGO VISTA    CLOUDY    71  57  61 E7        30.12R                  
6HR MIN TEMP:  71; 6HR MAX TEMP:  75;                                

SAN MARCOS     CLOUDY    70  57  64 N6        30.11R                  
6HR MIN TEMP:  70; 6HR MAX TEMP:  79;                                

NEW BRAUNFELS  CLOUDY    72  58  61 E5        30.08S                  
6HR MIN TEMP:  71; 6HR MAX TEMP:  80;                                

RANDOLPH AFB   CLOUDY    69  57  67 SE1       30.10S                  
6HR MIN TEMP:  69; 6HR MAX TEMP:  77;                                

PT SAN ANTONIO CLOUDY    72  60  64 SE7       30.07S                  
6HR MIN TEMP:  72; 6HR MAX TEMP:  79;                                

SAN ANTONIO    CLOUDY    72  58  61 SE8       30.10S                  
6HR MIN TEMP:  72; 6HR MAX TEMP:  80;                                

STINSON FIELD  CLOUDY    72  61  68 SE5       30.08R                  
6HR MIN TEMP:  72; 6HR MAX TEMP:  80;                                

*PLEASANTON    CLOUDY    71  62  72 SE3       30.09R                  
6HR MIN TEMP:  71; 6HR MAX TEMP:  81;                                

*LA GRANGE     CLOUDY    68  62  79 CALM      30.07F                  
6HR MIN TEMP:  66; 6HR MAX TEMP:  76;                                

*GIDDINGS      CLOUDY    67  58  73 E5        30.12F                  
6HR MIN TEMP:  64; 6HR MAX TEMP:  74;                                

*GONZALES      CLOUDY    69  62  78 CALM      30.08R                  
6HR MIN TEMP:  69; 6HR MAX TEMP:  78;                                

$$

TXZ163>164-176>182-195>201-210>213-226-227-235-230700-
SOUTHEAST TEXAS
  
CITY           SKY/WX    TMP DP  RH WIND       PRES   REMARKS
COLLEGE STN    CLOUDY    67  58  72 E5        30.09F                  
6HR MIN TEMP:  67; 6HR MAX TEMP:  75;                                

*BRYAN         CLOUDY    64  58  82 E3        30.11F                  
6HR MIN TEMP:  64; 6HR MAX TEMP:  72;                                

*CALDWELL      CLOUDY    66  57  72 CALM      30.13S                  
*CROCKETT      CLOUDY    64  57  77 CALM      30.14R                  
*BRENHAM       CLOUDY    66  60  79 E3        30.10S                  
6HR MIN TEMP:  65; 6HR MAX TEMP:  76;                                

HUNTSVILLE     CLOUDY    62  56  80 CALM      30.10R                  
6HR MIN TEMP:  61; 6HR MAX TEMP:  70;                                

CONROE         PTCLDY    62  56  80 CALM      30.10R                  
6HR MIN TEMP:  59; 6HR MAX TEMP:  67;                                

HOUSTON BUSH   PTCLDY    63  58  83 E8        30.08S                  
6HR MIN TEMP:  62; 6HR MAX TEMP:  74;                                

HOUSTON HOBBY  PTCLDY    65  61  87 E3        30.07F                  
6HR MIN TEMP:  64; 6HR MAX TEMP:  74;                                

*HOUSTON SW AP CLEAR     54  54 100 SW5       30.07S FOG              
6HR MIN TEMP:  54; 6HR MAX TEMP:  68;                                

PEARLAND       CLEAR     64  59  83 NE3       30.08F                  
6HR MIN TEMP:  63; 6HR MAX TEMP:  75;                                

HOUSTON HOOKS  CLEAR     66  56  70 E5        30.08S                  
6HR MIN TEMP:  61; 6HR MAX TEMP:  73;                                

ELLINGTON FLD  PTCLDY    66  61  82 NE5       30.08F                  
SUGAR LAND     CLEAR     61  59  93 CALM      30.08R                  
6HR MIN TEMP:  61; 6HR MAX TEMP:  75;                                

*HOUSTON EXEC  CLEAR     63 N/A N/A N5        30.10R                  
*CLEVELAND MUN CLEAR     60  58  90 CALM      30.10                   
6HR MIN TEMP:  60; 6HR MAX TEMP:  67;                                

*WHARTON       CLEAR     62  59  90 E3        30.08S                  
6HR MIN TEMP:  62; 6HR MAX TEMP:  73;                                

*COLUMBUS      FAIR      61  58  90 CALM      30.08S                  
6HR MIN TEMP:  60; 6HR MAX TEMP:  74;                                

$$

TXZ214>216-236>238-230700-
THE UPPER TEXAS COAST
  
CITY           SKY/WX    TMP DP  RH WIND       PRES   REMARKS
*ORANGE        CLEAR     62  54  76 NE5       30.11S                  
6HR MIN TEMP:  61; 6HR MAX TEMP:  73;                                

PORT ARTHUR    CLEAR     65  54  67 NE9       30.07F                  
6HR MIN TEMP:  65; 6HR MAX TEMP:  74;                                

GALVESTON      CLEAR     70  65  84 NE8       30.08F                  
6HR MIN TEMP:  70; 6HR MAX TEMP:  74;                                

ANGLETON       CLEAR     60  60 100 CALM      30.07F                  
6HR MIN TEMP:  58; 6HR MAX TEMP:  71;                                

*BAY CITY        N/A     60  60  98 CALM      30.07S FOG              
PALACIOS       CLEAR     66  61  84 E6        30.06F                  
6HR MIN TEMP:  66; 6HR MAX TEMP:  74;                                

$$

TXZ229>234-239>247-230700-
TEXAS COASTAL BEND AND RIO GRANDE PLAINS
  
CITY           SKY/WX    TMP DP  RH WIND       PRES   REMARKS
VICTORIA       CLEAR     62  59  90 NE3       30.08S                  
6HR MIN TEMP:  61; 6HR MAX TEMP:  76;                                

*BEEVILLE      CLEAR     67  63  85 E5        30.06F                  
6HR MIN TEMP:  67; 6HR MAX TEMP:  79;                                

ROCKPORT       CLEAR     74  63  68 E10       30.05F                  
6HR MIN TEMP:  74; 6HR MAX TEMP:  77;                                

*PORT ARANSAS  CLEAR     74  63  68 E10       30.04F                  
6HR MIN TEMP:  74; 6HR MAX TEMP:  76;                                

*PORT LAVACA   CLEAR     71  64  78 E9        30.06F                  
6HR MIN TEMP:  70; 6HR MAX TEMP:  75;                                

*INGLESIDE     CLEAR     72  63  73 E7        30.04F                  
CORPUS CHRISTI PTCLDY    72  64  76 E5        30.05F                  
6HR MIN TEMP:  72; 6HR MAX TEMP:  77;                                

CORPUS NAS     CLEAR     74  66  76 E9        30.04F                  
6HR MIN TEMP:  74; 6HR MAX TEMP:  77;                                

*ROBSTOWN      NOT AVBL                                               
ALICE          CLEAR     66  63  90 N5        30.06S                  
6HR MIN TEMP:  66; 6HR MAX TEMP:  78;                                

KINGSVILLE NAS CLEAR     65  64  97 N5        30.05F                  
6HR MIN TEMP:  65; 6HR MAX TEMP:  78;                                

COTULLA        CLOUDY    74  63  68 SE8       30.08S                  
6HR MIN TEMP:  74; 6HR MAX TEMP:  85;                                

*FAITH RANCH   CLOUDY    72  63  73 N6        30.08F                  
LAREDO         CLOUDY    74  65  73 SE5       30.09F                  
6HR MIN TEMP:  74; 6HR MAX TEMP:  82;                                

$$

TXZ248>255-230700-
DEEP SOUTH TEXAS
  
CITY           SKY/WX    TMP DP  RH WIND       PRES   REMARKS
BROWNSVILLE    CLEAR     73  68  84 NE3       30.02F                  
6HR MIN TEMP:  72; 6HR MAX TEMP:  78;                                

PORT ISABEL    CLEAR     76  66  71 E8        30.02F                  
6HR MIN TEMP:  75; 6HR MAX TEMP:  79;                                

*SOUTH PADRE   PTCLDY    77  66  69 E7        30.01F                  

Return to Home page


Western Regional Climate Center, wrcc@dri.edu